| time (UTC) | temp F | wind direction | speed MPH | gust MPH | rain 1hr in | rain 24hr in | rain mn in | humidity % | barometer mb |
| 20260504110116 | 37 | 10 | 0.0 | 1.0 | 0.00 | 0.00 | 0.00 | 90 | 1017.4 |
| 20260504081537 | 38 | 10 | 0.0 | 0.0 | 0.00 | 0.00 | 0.00 | 88 | 1017.2 |
| 20260504050020 | 41 | 10 | 0.0 | 0.0 | 0.00 | 0.00 | 0.00 | 82 | 1017.4 |
| 20260504044533 | 42 | 10 | 0.0 | 0.0 | 0.00 | 0.00 | 0.00 | 81 | 1017.1 |
| 20260504043019 | 42 | 10 | 0.0 | 0.0 | 0.00 | 0.00 | 0.00 | 81 | 1017.1 |
| 20260504041512 | 42 | 10 | 0.0 | 0.0 | 0.00 | 0.00 | 0.00 | 80 | 1017.0 |
| 20260504040010 | 43 | 10 | 0.0 | 0.0 | 0.00 | 0.00 | 0.00 | 79 | 1016.9 |
| 20260504034509 | 43 | 10 | 0.0 | 0.0 | 0.00 | 0.00 | 0.00 | 79 | 1017.0 |
| 20260504033011 | 44 | 10 | 0.0 | 0.0 | 0.00 | 0.00 | 0.00 | 78 | 1017.1 |
| 20260504031509 | 44 | 10 | 0.0 | 0.0 | 0.00 | 0.00 | 0.00 | 77 | 1017.1 |
| 20260504030010 | 45 | 10 | 0.0 | 0.0 | 0.00 | 0.00 | 0.00 | 76 | 1017.1 |
| 20260504024515 | 45 | 10 | 0.0 | 0.0 | 0.00 | 0.00 | 0.00 | 75 | 1017.0 |
| 20260504023007 | 46 | 10 | 0.0 | 0.0 | 0.00 | 0.00 | 0.00 | 74 | 1017.0 |
| 20260504021506 | 47 | 10 | 0.0 | 0.0 | 0.00 | 0.00 | 0.00 | 73 | 1016.9 |
| 20260504020013 | 47 | 179 | 0.0 | 0.0 | 0.00 | 0.00 | 0.00 | 71 | 1016.8 |
| 20260504014505 | 48 | 10 | 0.0 | 0.0 | 0.00 | 0.00 | 0.00 | 70 | 1016.5 |
| 20260504013009 | 49 | 10 | 0.0 | 0.0 | 0.00 | 0.00 | 0.00 | 68 | 1016.4 |
| 20260504011504 | 50 | 10 | 0.0 | 1.0 | 0.00 | 0.00 | 0.00 | 66 | 1016.4 |
| 20260504010008 | 52 | 178 | 0.0 | 1.0 | 0.00 | 0.00 | 0.00 | 63 | 1016.2 |
| 20260504004505 | 53 | 10 | 0.0 | 0.0 | 0.00 | 0.00 | 0.00 | 61 | 1016.3 |
| 20260504003002 | 55 | 178 | 0.0 | 0.0 | 0.00 | 0.00 | 0.00 | 58 | 1016.2 |
| 20260504001502 | 57 | 179 | 0.0 | 1.0 | 0.00 | 0.00 | 0.00 | 55 | 1015.9 |
| 20260504000001 | 59 | 178 | 0.0 | 0.0 | 0.00 | 0.00 | 0.00 | 52 | 1015.8 |
| 20260503234501 | 60 | 178 | 0.0 | 1.0 | 0.00 | 0.00 | 0.00 | 49 | 1015.8 |
| 20260503233100 | 62 | 178 | 0.0 | 2.0 | 0.00 | 0.00 | 0.00 | 45 | 1015.7 |
| 20260503231559 | 63 | 177 | 0.0 | 3.0 | 0.00 | 0.00 | 0.00 | 41 | 1015.7 |
| 20260503230059 | 64 | 178 | 2.0 | 5.0 | 0.00 | 0.00 | 0.00 | 33 | 1015.6 |
| 20260503224558 | 64 | 174 | 1.0 | 5.0 | 0.00 | 0.00 | 0.00 | 36 | 1015.7 |
| 20260503223058 | 65 | 183 | 3.0 | 9.0 | 0.00 | 0.00 | 0.00 | 32 | 1015.9 |
| 20260503221557 | 65 | 240 | 1.0 | 9.0 | 0.00 | 0.00 | 0.00 | 30 | 1016.1 |
| 20260503220110 | 66 | 225 | 1.0 | 5.0 | 0.00 | 0.00 | 0.00 | 29 | 1016.1 |
| 20260503214555 | 66 | 263 | 0.0 | 8.0 | 0.00 | 0.00 | 0.00 | 29 | 1016.1 |
| 20260503213055 | 68 | 5 | 2.0 | 7.0 | 0.00 | 0.00 | 0.00 | 29 | 1016.1 |
| 20260503211607 | 69 | 287 | 2.0 | 5.0 | 0.00 | 0.00 | 0.00 | 28 | 1016.2 |
| 20260503210057 | 69 | 336 | 2.0 | 6.0 | 0.00 | 0.00 | 0.00 | 30 | 1016.1 |
| 20260503204557 | 69 | 175 | 2.0 | 11.0 | 0.00 | 0.00 | 0.00 | 26 | 1016.5 |
| 20260503203052 | 69 | 332 | 1.0 | 6.0 | 0.00 | 0.00 | 0.00 | 30 | 1016.6 |
| 20260503201550 | 69 | 227 | 3.0 | 10.0 | 0.00 | 0.00 | 0.00 | 31 | 1017.0 |
| 20260503200049 | 68 | 5 | 3.0 | 15.0 | 0.00 | 0.00 | 0.00 | 33 | 1017.2 |
| 20260503194549 | 69 | 190 | 2.0 | 8.0 | 0.00 | 0.00 | 0.00 | 31 | 1017.3 |
| 20260503193050 | 68 | 352 | 2.0 | 4.0 | 0.00 | 0.00 | 0.00 | 32 | 1017.4 |
| 20260503191543 | 67 | 255 | 1.0 | 10.0 | 0.00 | 0.00 | 0.00 | 34 | 1017.6 |
| 20260503190043 | 67 | 332 | 3.0 | 9.0 | 0.00 | 0.00 | 0.00 | 33 | 1017.9 |
| 20260503184541 | 66 | 1 | 2.0 | 6.0 | 0.00 | 0.00 | 0.00 | 36 | 1018.1 |
| 20260503183041 | 66 | 241 | 2.0 | 7.0 | 0.00 | 0.00 | 0.00 | 34 | 1018.4 |
| 20260503181613 | 66 | 356 | 1.0 | 8.0 | 0.00 | 0.00 | 0.00 | 35 | 1018.6 |
| 20260503180040 | 65 | 46 | 0.0 | 4.0 | 0.00 | 0.00 | 0.00 | 37 | 1018.7 |
| 20260503174533 | 64 | 327 | 3.0 | 7.0 | 0.00 | 0.00 | 0.00 | 40 | 1018.7 |
| 20260503173044 | 63 | 351 | 4.0 | 9.0 | 0.00 | 0.00 | 0.00 | 36 | 1019.0 |
| 20260503171528 | 62 | 211 | 3.0 | 8.0 | 0.00 | 0.00 | 0.00 | 36 | 1019.3 |